Wind_Speed
29 28 27 27 27 26 23 21 21 21 21 21 21 21 21 20 19 18 17 16 16 17 18 19 20 20 19 17 15 13 11 10 9 8 7 6 5 5 4 3 2 2 1 1 2 3 4 4 5 5 6 6 5 5 5 6 6 5 5 5 4 5 5 5 5 5 5 5 5
28 28 28 29 28 26 23 20 20 20 21 21 21 21 21 20 19 18 17 17 18 19 21 21 21 20 18 16 14 12 11 10 9 8 7 6 5 4 4 3 2 1 1 1 2 3 4 4 4 5 5 6 4 4 4 6 7 6 5 4 5 5 5 5 5 5 5 5 5
29 29 29 28 26 24 21 21 21 22 22 21 21 21 21 20 19 19 18 19 21 22 23 23 21 20 18 16 14 12 11 10 8 8 7 6 5 4 3 3 2 1 0 1 3 3 4 4 4 5 5 5 3 3 4 6 7 6 5 5 5 5 5 5 5 5 5 5 5
30 30 29 27 25 23 22 22 23 23 23 22 22 21 21 20 20 20 21 22 23 24 24 23 22 20 17 16 14 12 11 9 8 8 7 6 5 4 3 2 1 0 1 2 3 4 5 5 5 6 5 4 3 3 4 6 7 6 5 5 6 5 5 5 4 5 5 5 5
29 28 26 25 24 24 23 24 25 25 24 24 23 22 22 22 22 22 23 23 23 24 23 22 21 19 17 15 14 12 11 10 9 8 7 6 5 4 3 2 1 1 2 3 4 5 6 6 6 6 6 5 4 5 6 7 6 6 5 6 5 5 5 5 5 5 5 5 6
26 25 24 23 24 24 24 25 26 26 25 25 24 24 23 23 24 24 24 24 24 24 23 21 20 18 17 15 13 12 11 10 9 8 7 6 5 4 3 2 1 1 2 3 4 5 6 6 6 6 6 5 5 6 7 8 7 5 5 4 4 5 5 5 5 5 6 6 6
24 23 23 23 24 25 25 26 26 26 26 25 25 25 26 26 25 25 26 26 25 24 22 21 19 18 17 15 14 12 11 10 9 8 7 6 5 4 3 2 1 2 3 4 5 6 6 6 6 5 5 5 5 5 7 8 7 6 5 4 4 4 5 5 5 6 6 6 7
23 23 24 24 25 26 27 27 27 27 26 25 26 27 27 27 27 27 26 26 25 24 22 20 19 17 16 15 14 12 11 10 9 8 7 6 5 4 3 2 2 2 3 4 5 6 6 6 6 5 5 5 4 5 6 8 7 6 5 4 4 4 4 5 5 6 6 7 8
23 24 25 26 27 28 28 28 28 27 26 26 27 28 28 28 28 27 26 25 24 23 22 20 18 17 15 14 13 12 11 10 10 9 8 6 5 4 3 2 2 3 4 4 5 6 6 6 5 5 5 5 4 5 6 7 7 6 5 5 5 5 5 5 5 6 7 7 8
24 25 26 27 28 29 29 28 28 27 27 27 28 28 28 28 27 26 25 24 24 23 21 20 18 17 15 14 13 12 11 10 10 9 8 7 5 4 3 3 2 3 4 5 5 6 6 5 4 4 5 5 4 5 6 7 6 5 5 5 5 6 6 6 6 6 7 7 8
27 28 28 28 29 29 29 28 27 27 28 28 28 28 28 27 26 25 25 24 23 22 21 19 18 17 16 14 13 12 11 10 9 8 8 7 5 4 3 3 3 3 4 5 5 5 5 4 4 4 5 5 4 4 5 6 6 5 5 5 6 6 7 7 7 7 7 8 9
28 29 30 30 31 30 29 28 27 27 28 28 28 28 27 26 26 25 24 24 23 22 20 19 18 17 15 14 13 12 11 10 9 8 7 6 5 4 3 2 3 3 4 5 5 5 5 4 4 4 4 4 3 3 4 5 6 5 5 6 6 7 7 7 7 7 7 8 9
29 30 30 31 31 31 30 29 28 28 28 28 28 27 26 26 25 25 24 23 22 21 20 19 17 16 15 14 13 12 11 10 9 8 7 6 5 3 3 2 3 3 4 5 5 5 5 5 5 4 4 4 3 4 4 5 5 5 6 6 7 7 7 8 8 8 8 9 9
30 30 31 32 32 31 30 29 28 28 28 27 27 27 26 26 25 24 24 23 22 22 21 19 17 15 14 13 12 11 10 10 9 8 7 5 4 3 2 2 3 3 4 5 5 5 5 5 5 5 4 4 4 4 5 5 6 6 6 7 7 8 8 8 8 8 9 9 10
30 31 31 32 31 30 29 29 28 27 27 27 27 27 26 26 25 24 23 23 22 21 20 19 17 15 14 12 11 11 10 9 8 7 6 4 3 2 2 2 3 3 4 5 5 6 5 5 5 5 5 5 5 5 5 5 6 6 6 7 7 8 8 8 8 9 9 10 11
29 30 31 31 30 30 29 28 27 27 27 27 27 27 26 25 24 24 23 23 22 21 20 19 17 16 14 12 11 10 10 9 8 6 5 4 2 1 1 2 3 3 4 5 5 5 5 5 5 5 6 5 5 5 5 6 6 6 7 7 7 7 8 8 8 9 9 10 11
29 30 30 30 29 29 28 27 27 27 27 27 27 26 25 25 24 24 23 22 21 20 19 18 16 15 14 13 11 10 9 8 7 6 4 3 2 1 1 2 3 3 4 4 4 4 4 5 5 6 6 6 6 6 6 6 6 7 7 7 7 7 8 8 8 9 10 11 11
28 29 29 29 28 28 28 28 27 27 27 27 26 26 25 25 24 23 23 22 20 19 18 17 15 14 14 13 12 10 9 8 7 5 4 2 1 0 1 2 3 4 4 4 4 4 4 4 5 5 5 6 6 6 6 6 7 7 7 7 7 7 8 8 8 9 10 11 12
28 28 28 28 28 28 28 28 28 28 27 27 26 25 25 24 24 23 22 21 19 18 17 16 15 14 13 12 11 10 9 7 6 4 3 1 0 1 2 3 3 4 5 5 4 4 4 4 4 5 5 5 6 6 6 7 7 7 8 8 8 8 8 8 9 9 10 11 12
27 27 27 27 28 28 28 28 28 28 27 26 26 25 24 24 24 23 21 20 18 17 16 15 14 14 13 11 10 9 8 6 5 3 2 1 0 1 2 3 4 4 5 5 5 4 4 4 4 5 5 6 6 6 7 7 8 8 8 8 8 8 9 9 10 10 11 12 12
26 26 27 27 28 28 28 28 28 27 26 26 25 25 24 24 23 21 20 19 17 16 15 14 14 13 12 11 10 8 7 5 4 3 1 1 1 2 3 4 4 5 5 5 5 4 4 4 5 5 5 6 6 7 7 8 8 8 8 8 9 9 9 10 10 11 11 12 12
25 26 27 27 28 28 28 27 27 26 26 25 25 24 24 23 22 21 19 18 17 16 15 14 13 12 11 10 9 7 6 4 3 2 1 1 2 2 3 4 5 5 5 5 5 4 4 5 5 5 6 6 7 7 8 8 9 9 9 9 10 10 10 10 11 11 12 12 13
26 26 27 27 27 27 27 27 27 26 25 25 24 24 23 22 21 20 19 18 16 15 15 14 13 11 10 9 7 6 5 4 3 2 1 1 2 3 4 5 5 5 5 5 5 5 5 5 6 6 7 7 8 8 8 9 9 9 10 10 11 11 11 11 12 12 12 13 13
27 27 27 27 27 27 27 27 26 26 25 24 24 23 23 22 21 20 18 17 16 15 14 13 12 11 9 8 6 5 4 3 3 2 2 2 3 4 4 5 5 5 5 6 6 5 5 5 6 7 7 8 8 9 9 9 10 10 10 11 11 12 12 12 12 13 13 13 13
28 28 28 27 27 27 27 26 26 25 25 24 24 23 22 21 20 19 18 17 16 15 14 13 11 10 8 7 6 5 4 3 2 2 2 2 3 4 5 5 5 6 6 7 7 6 5 5 6 7 8 9 9 10 10 10 10 10 10 11 12 12 13 13 13 13 13 14 14
28 28 28 28 27 27 26 26 25 25 25 24 24 23 22 21 19 18 18 17 16 14 13 12 10 9 8 6 6 5 4 3 2 2 2 2 3 4 5 5 5 6 7 7 7 7 6 6 6 7 8 9 10 10 10 10 10 10 11 11 12 12 13 13 14 14 14 14 14
29 28 28 27 27 26 25 25 25 25 24 24 23 22 21 20 19 18 17 16 15 14 12 11 9 8 7 6 5 4 4 3 2 2 2 3 4 4 5 5 6 7 8 8 8 7 6 6 7 8 8 9 10 10 11 11 11 11 11 11 12 12 12 13 14 14 14 14 14
28 28 27 27 26 25 25 25 25 24 24 23 23 21 20 19 18 18 17 16 15 13 12 10 9 7 6 6 5 4 3 2 2 2 3 4 4 5 5 5 6 7 8 8 8 7 7 7 7 8 9 9 10 11 11 11 11 11 11 11 12 12 12 13 14 14 14 14 14
28 28 27 26 25 24 24 24 24 24 23 23 22 21 20 19 18 17 16 15 14 13 11 10 8 7 6 6 4 3 2 2 2 3 4 5 5 5 6 6 7 8 9 9 8 7 7 7 8 9 9 10 10 11 11 11 11 11 11 11 12 12 12 13 13 14 14 14 14
28 27 26 25 24 24 23 23 23 23 23 21 21 20 19 18 17 16 15 14 13 12 10 8 7 7 6 5 4 3 2 2 3 3 4 5 5 6 6 7 8 9 9 9 9 8 7 8 9 9 10 11 11 11 11 11 11 11 12 12 12 12 13 13 14 14 14 14 15
26 26 25 24 24 23 23 23 23 22 21 20 19 19 18 17 17 16 15 13 12 10 8 7 6 6 5 4 3 2 2 2 3 4 5 5 5 6 7 8 8 9 10 10 9 8 8 8 9 10 11 11 11 11 11 11 11 12 12 12 13 13 13 13 13 14 14 15 15
25 24 24 24 23 23 23 23 22 21 20 19 19 18 17 17 16 15 14 12 10 8 7 6 6 5 4 3 2 2 2 3 4 4 5 6 6 7 8 8 8 9 10 10 9 9 9 9 10 10 11 12 12 12 12 12 12 12 12 13 13 13 13 13 13 14 14 15 15
24 24 24 24 23 23 22 22 21 20 19 18 18 18 17 17 16 14 12 10 9 8 7 6 6 5 4 3 3 3 3 3 4 5 6 7 7 8 8 7 7 8 10 10 10 9 9 10 10 11 12 13 13 12 12 12 12 12 12 13 13 13 13 13 13 14 15 15 15
24 24 24 24 23 22 21 20 20 19 19 18 18 18 17 16 15 13 11 9 8 7 7 6 6 5 4 3 3 3 3 4 5 6 6 7 8 8 7 6 6 8 10 11 10 10 10 10 11 12 13 13 13 12 12 12 12 12 13 13 13 13 13 13 14 14 15 15 15
24 24 24 23 23 22 21 20 20 19 19 18 18 17 16 15 13 11 10 8 7 7 7 6 5 4 3 3 3 3 4 4 5 6 7 7 8 7 6 6 6 8 11 11 11 11 11 11 11 12 13 13 12 12 12 12 12 12 13 13 13 13 14 14 14 15 15 14 13
24 25 24 23 22 21 21 20 20 19 19 18 18 17 15 13 11 9 8 7 7 7 6 5 4 4 4 4 4 4 4 5 5 6 7 8 7 7 6 6 6 8 11 11 11 11 11 11 12 13 13 13 12 12 12 12 12 12 13 13 13 14 14 14 14 14 14 13 12
24 25 24 23 22 21 21 20 20 19 18 18 17 16 13 11 10 9 8 8 8 7 6 5 5 5 4 4 4 4 4 5 6 6 7 7 7 7 6 6 6 8 10 11 12 11 11 11 12 13 13 13 13 12 12 12 12 12 13 13 13 14 14 14 14 13 12 12 13
24 24 24 23 22 21 20 20 19 18 18 17 16 13 11 10 10 9 9 9 8 7 6 5 5 4 4 4 4 4 5 6 6 6 6 6 7 7 7 6 6 8 9 11 12 12 12 12 12 13 13 13 13 13 12 12 12 12 13 13 13 13 13 13 12 12 13 14 14
23 23 23 22 22 21 20 19 18 18 17 16 14 12 11 10 10 10 10 9 8 7 6 5 4 4 4 4 4 5 5 6 6 6 5 5 6 7 7 7 7 8 9 11 12 12 12 12 12 13 13 13 13 13 12 12 12 13 13 13 13 13 13 12 12 13 14 15 15
22 22 22 22 21 20 19 18 18 17 16 14 13 12 12 12 11 11 10 9 8 7 6 5 4 4 4 4 4 4 5 5 6 6 5 5 6 7 8 7 8 8 9 11 12 13 12 12 12 13 13 13 13 12 12 12 13 13 13 13 13 14 13 13 13 14 15 16 16
21 21 21 21 21 20 19 19 18 16 14 13 13 13 13 12 11 10 9 8 7 6 5 4 4 4 4 4 4 4 3 3 4 5 5 6 6 7 7 8 8 8 9 10 12 12 12 12 12 13 13 13 13 12 12 12 12 13 13 13 13 14 14 14 15 15 15 16 16
Wind_Direction
160 161 162 160 159 159 160 161 162 162 162 161 159 157 156 155 154 155 156 155 153 151 150 150 149 148 146 147 148 149 149 150 151 151 151 150 148 145 143 140 135 120 81 17 356 346 341 334 330 328 327 326 322 317 316 322 322 319 315 314 312 311 310 307 301 297 294 290 287
159 160 160 159 159 160 161 162 164 164 164 162 158 157 156 155 154 154 154 153 153 152 151 150 149 147 145 146 149 150 150 151 152 152 151 150 150 150 148 145 140 124 64 358 344 336 332 329 325 322 322 323 322 311 307 318 324 322 314 312 310 310 311 308 302 299 298 294 290
159 158 158 158 160 161 162 164 165 164 162 159 157 155 155 154 153 153 153 153 153 152 151 149 147 146 146 147 149 151 152 153 154 154 153 153 153 154 154 152 150 144 345 331 326 324 324 322 317 316 317 319 314 300 302 314 325 325 316 310 309 311 312 307 303 301 301 299 295
159 158 158 160 163 164 165 164 163 161 159 157 155 154 154 153 152 151 151 152 152 152 150 149 147 147 148 149 150 152 153 154 156 156 156 156 157 158 159 160 163 195 307 315 316 317 316 316 314 315 317 315 309 302 306 314 323 323 317 312 314 313 310 306 302 302 302 301 298
159 160 161 164 166 166 164 162 160 159 157 156 154 154 153 152 151 150 150 150 151 151 151 149 148 148 149 150 151 153 154 156 157 158 159 160 161 163 166 167 177 251 297 308 310 313 315 316 316 317 318 314 311 308 312 320 324 321 316 315 316 314 310 305 301 302 303 303 301
160 161 162 164 165 164 161 160 159 157 156 156 154 154 153 152 151 150 149 149 151 151 151 150 149 149 149 151 153 154 156 157 159 161 163 165 167 168 170 176 200 263 292 303 309 312 316 317 318 318 319 321 317 316 321 327 328 323 316 310 307 310 310 305 302 302 303 303 302
161 162 162 162 162 161 159 158 158 157 155 155 154 153 153 152 151 151 151 151 151 151 150 150 150 150 151 153 155 157 158 159 160 164 167 170 171 172 176 186 221 267 290 301 309 313 316 318 319 318 319 323 319 318 322 328 329 325 316 306 301 305 308 304 301 302 303 302 303
160 161 161 160 160 159 158 157 156 155 154 153 153 153 153 152 151 151 151 150 150 151 151 151 151 152 154 155 157 159 161 162 163 166 170 173 174 177 183 198 234 270 289 301 309 314 316 319 322 320 318 321 320 315 317 324 328 326 316 307 304 304 304 302 301 302 303 302 303
158 158 158 158 158 158 157 156 155 154 152 152 153 153 153 152 152 151 150 150 151 152 152 151 152 153 155 157 159 160 163 165 167 170 172 175 178 181 190 211 245 275 293 303 311 316 320 323 324 322 321 324 320 311 313 322 327 325 316 309 307 306 304 303 301 301 302 303 304
155 155 155 155 156 156 154 153 152 152 151 151 152 152 152 152 152 151 151 152 152 152 151 152 152 154 156 158 160 162 164 167 170 173 175 177 180 186 198 220 252 280 296 307 315 321 326 329 324 320 321 325 321 314 315 323 326 322 314 310 308 308 306 305 305 305 304 304 305
153 154 154 154 154 153 152 150 150 150 150 150 151 151 151 151 152 152 153 153 152 151 151 153 154 155 156 159 161 164 166 169 171 174 176 179 184 193 206 229 261 288 301 311 320 326 331 331 322 318 320 323 322 317 316 322 324 319 312 309 308 308 309 309 310 310 309 308 308
152 153 153 153 152 151 150 148 149 149 149 149 149 150 150 151 153 154 153 152 151 151 152 154 155 156 158 160 162 165 168 170 172 175 179 183 189 199 215 244 276 297 308 316 324 330 333 331 325 320 319 321 319 313 311 317 318 316 310 308 308 309 310 312 314 314 313 312 311
152 152 151 151 151 150 149 148 148 148 148 148 148 149 150 152 154 154 153 151 151 151 152 154 156 157 160 162 164 167 169 171 174 177 181 186 194 207 228 262 293 308 317 323 329 334 335 331 328 324 318 316 310 307 310 315 315 312 309 309 311 311 312 314 315 315 315 313 312
151 151 150 150 150 149 148 147 146 147 147 147 149 150 150 151 152 152 152 152 152 152 153 154 156 158 160 163 165 168 169 172 175 178 182 188 198 214 245 282 308 319 325 328 333 337 338 332 329 325 321 317 311 310 311 314 311 309 308 309 310 312 313 314 316 316 316 315 314
150 150 150 149 149 148 147 146 146 146 147 147 149 150 150 150 150 152 153 153 153 153 153 154 155 157 160 163 166 168 170 172 174 178 181 187 199 223 264 299 318 327 332 335 337 340 339 334 329 325 322 318 314 312 310 310 307 306 306 307 308 310 311 313 315 316 316 316 316
150 150 149 149 149 148 147 146 146 147 147 148 149 150 149 149 151 153 154 154 154 153 154 155 156 157 159 162 165 167 169 171 174 176 179 185 195 228 285 315 327 334 337 341 342 340 337 335 329 325 322 318 315 310 308 307 304 303 303 304 305 307 309 312 314 315 316 317 317
150 149 149 149 149 148 147 147 147 148 148 149 149 150 149 150 151 153 154 154 154 153 154 155 157 158 159 161 164 166 168 170 172 174 176 181 191 227 302 326 334 339 343 347 345 338 331 328 326 323 321 319 314 309 306 304 302 301 302 302 303 304 306 309 312 314 316 317 317
149 150 150 150 149 149 148 148 148 149 149 149 149 150 150 151 152 153 154 155 154 154 154 155 157 159 160 161 163 165 166 168 169 173 175 181 196 270 327 337 340 345 348 350 348 338 326 321 319 318 317 313 309 305 302 301 299 300 300 300 300 302 304 307 310 313 315 316 317
149 150 150 150 150 150 149 149 149 149 149 150 150 150 150 151 152 152 153 154 154 155 154 155 156 158 161 162 163 165 166 168 169 171 176 178 202 338 347 348 348 350 351 352 348 341 331 322 315 311 308 305 301 298 297 298 298 299 299 299 299 300 304 306 308 311 313 315 316
149 149 150 150 150 150 149 149 149 149 149 149 149 149 149 150 151 151 151 152 153 154 155 155 156 157 160 162 164 165 166 166 167 166 163 153 41 7 359 355 353 353 353 353 349 344 334 324 315 308 304 300 297 297 297 298 298 298 298 298 299 301 303 305 306 309 311 313 315
148 149 150 150 150 149 148 148 148 148 148 148 148 148 148 149 149 150 150 151 152 153 155 155 156 157 159 161 162 163 163 161 158 153 139 86 34 12 2 359 357 356 356 355 351 343 333 323 314 306 300 298 297 297 298 299 300 299 298 298 300 302 302 303 305 308 310 312 314
147 148 149 149 148 148 147 147 146 146 145 145 145 146 146 147 148 148 149 149 150 152 153 154 155 157 158 159 160 160 157 153 146 138 114 64 25 9 1 359 359 359 360 358 351 344 334 325 313 303 297 296 295 296 298 299 300 300 300 300 301 301 302 303 305 307 309 311 313
146 146 146 147 147 146 146 145 144 144 143 143 143 144 145 146 146 147 147 148 149 151 152 153 154 155 156 156 155 153 149 141 132 116 86 45 17 6 1 359 1 2 1 357 351 348 341 326 314 306 300 298 297 298 299 299 300 300 301 301 302 302 303 304 305 307 309 310 312
145 145 145 145 145 144 144 143 142 141 140 141 142 143 144 145 145 146 146 147 149 151 152 153 153 153 152 150 148 143 136 129 119 100 64 30 12 3 1 2 3 2 357 352 350 353 352 334 320 314 311 306 303 301 300 299 299 299 300 302 303 303 303 304 305 307 309 310 311
144 144 144 143 143 142 142 141 139 139 139 140 142 143 143 144 144 145 146 147 149 151 152 151 150 148 146 144 140 135 128 122 111 90 56 26 10 6 6 6 2 357 353 351 350 355 357 341 326 319 316 312 308 305 301 299 298 298 299 300 302 303 303 304 306 307 309 310 310
144 143 142 142 141 140 139 139 139 139 139 141 142 142 142 143 144 145 146 147 148 149 149 147 145 143 141 139 136 133 128 121 106 82 54 28 13 8 8 6 359 353 352 351 352 356 355 340 325 319 316 313 310 306 303 300 299 298 298 298 300 301 303 305 307 308 309 310 310
142 141 141 140 139 138 138 138 139 139 139 140 141 142 142 143 144 145 145 146 146 145 144 142 141 139 138 137 137 136 132 121 99 70 43 24 14 11 8 2 356 353 351 350 353 354 349 334 324 319 316 314 311 307 303 301 300 298 297 297 299 300 302 304 307 308 310 310 310
140 140 139 139 138 137 138 138 138 138 139 141 141 142 142 143 143 144 144 144 144 143 141 140 139 138 138 140 141 138 128 107 76 46 28 16 11 9 6 1 355 352 350 350 353 352 345 332 324 320 318 316 312 307 303 300 299 298 298 298 299 301 302 304 306 308 309 310 310
140 139 138 137 137 137 137 137 138 139 140 141 141 141 141 141 142 143 143 142 142 141 141 140 139 139 142 145 142 132 114 85 51 31 21 15 11 6 1 357 353 350 349 348 351 349 341 330 324 321 319 317 313 308 303 300 298 299 299 299 300 301 302 304 305 307 308 309 309
139 138 137 136 136 136 137 138 139 140 140 140 140 139 139 139 140 141 141 141 141 141 140 138 139 144 146 144 137 123 102 64 35 25 20 18 11 3 356 354 351 349 348 348 349 346 337 329 324 321 320 318 313 308 303 299 298 298 298 299 299 300 301 302 304 305 307 308 308
138 137 136 135 135 136 137 138 139 139 139 138 137 137 137 138 139 140 141 141 140 137 135 135 143 147 146 139 129 111 81 45 29 23 18 12 5 359 354 351 350 348 346 346 346 343 335 328 325 322 320 318 314 308 302 299 297 297 297 297 298 298 299 301 303 304 306 307 308
136 136 135 135 135 136 137 137 137 137 136 136 136 136 137 138 140 141 141 139 136 134 136 143 148 148 142 131 116 89 57 38 27 18 11 5 360 356 353 351 349 345 344 344 344 340 334 329 325 323 321 318 313 307 302 298 297 296 296 296 296 296 298 299 301 303 305 307 308
135 135 135 134 134 135 136 136 135 135 134 135 136 138 139 140 141 140 138 136 135 137 143 150 150 145 134 120 99 73 49 32 20 10 4 360 357 356 354 353 346 341 340 342 342 340 335 330 327 324 321 319 314 307 302 299 298 298 298 298 297 297 297 298 300 302 304 306 307
135 135 134 134 134 135 135 134 134 134 135 136 137 139 140 140 139 138 137 137 140 146 152 155 152 144 130 113 92 69 46 25 12 5 360 356 355 355 354 351 340 336 337 340 340 339 336 333 329 325 323 320 315 309 304 302 300 300 299 299 299 298 298 299 300 302 303 305 306
136 135 134 134 134 134 134 135 135 136 136 136 138 139 139 138 138 138 140 144 152 158 159 156 148 134 114 90 68 55 39 20 7 1 356 354 353 353 351 344 335 334 336 339 339 339 337 334 330 327 325 321 316 311 307 304 302 301 301 301 301 301 301 301 302 304 305 306 306
137 136 135 135 135 135 135 136 137 137 137 137 138 139 139 138 139 141 146 154 159 158 152 141 125 106 88 69 54 40 26 13 3 356 352 351 351 350 345 338 331 332 334 337 338 339 338 336 332 330 327 323 318 314 310 307 304 303 303 303 304 304 304 305 305 306 308 308 306
138 138 136 135 135 136 136 137 137 137 137 139 140 141 141 142 144 148 153 157 154 147 135 120 107 94 80 64 47 27 11 3 359 354 350 347 347 345 340 333 328 328 332 335 337 339 339 337 334 331 328 324 320 315 312 308 306 305 305 306 305 306 307 308 309 310 310 308 304
139 138 138 136 136 136 137 138 137 138 139 141 142 143 144 148 151 152 152 149 142 133 123 113 104 90 70 47 28 13 2 358 355 351 348 343 341 340 337 330 324 324 328 332 335 338 339 338 334 331 329 325 321 317 313 310 308 307 307 307 307 307 309 311 314 314 311 306 303
139 139 138 137 137 137 138 138 139 141 143 144 144 146 150 153 153 150 146 140 134 127 120 111 97 74 48 32 21 8 358 352 349 348 345 339 334 335 334 330 323 321 325 330 334 338 340 338 333 331 329 325 321 318 314 311 309 308 308 308 308 309 312 316 318 314 309 305 302
138 138 138 138 138 139 139 140 142 144 146 146 148 150 152 152 148 144 139 133 127 120 111 97 77 54 37 27 20 8 356 349 345 343 340 335 331 332 334 331 325 322 324 329 334 338 339 335 332 330 329 326 323 319 315 312 310 309 309 310 311 313 316 319 317 312 307 306 304
138 139 139 140 141 141 142 143 145 147 149 150 150 150 149 145 141 135 129 122 115 106 94 77 58 41 28 21 15 9 1 350 340 336 334 333 331 332 332 330 327 325 325 328 333 336 336 332 330 329 329 327 324 320 316 313 311 311 311 313 315 317 319 318 315 311 308 307 307
Height
756 757 759 762 766 769 772 774 775 777 777 778 779 780 782 784 786 788 790 791 792 792 793 793 794 795 797 798 799 800 801 802 803 804 805 805 806 806 807 807 808 808 809 809 809 810 810 811 811 811 810 810 810 810 809 809 808 808 807 807 806 806 805 805 805 804 804 803 803
755 757 759 762 765 768 771 773 775 777 778 778 779 780 782 783 785 787 789 790 790 791 792 793 794 795 796 797 799 800 801 802 803 803 804 805 806 806 807 807 807 808 808 809 809 810 810 810 810 810 810 810 809 809 809 808 807 807 807 806 806 805 805 804 804 803 803 803 802
754 756 758 762 764 767 770 772 774 776 777 777 778 780 782 783 785 786 787 788 789 790 791 792 794 795 796 797 798 800 801 802 802 803 804 805 805 806 806 807 807 807 808 808 809 809 810 810 810 810 810 809 809 809 808 807 807 806 806 806 805 804 804 804 803 803 802 802 802
753 756 758 761 764 766 768 770 772 774 775 777 778 780 781 782 784 785 787 787 789 790 791 792 793 794 796 797 798 799 800 801 802 803 804 804 805 806 806 807 807 807 808 808 808 809 809 809 809 809 809 809 808 808 807 807 806 806 805 805 804 804 803 803 802 802 802 801 801
753 755 758 761 763 766 767 769 771 772 774 776 777 779 780 782 783 784 786 787 788 789 791 792 792 794 795 797 798 799 800 801 802 802 803 804 805 805 806 806 807 807 807 808 808 808 809 809 809 809 808 808 807 807 806 806 805 805 804 804 803 803 803 802 802 801 801 800 800
753 756 758 761 763 766 767 768 770 771 773 775 776 778 779 781 782 783 785 786 788 789 790 791 792 794 795 797 798 799 800 801 802 802 803 804 804 805 805 806 806 807 807 807 808 808 808 808 808 808 807 807 807 806 805 805 804 804 804 803 803 802 802 802 801 801 800 800 799
753 756 758 761 763 764 766 767 769 771 772 774 776 777 778 780 781 783 784 785 787 789 790 791 792 793 795 796 797 798 800 801 801 802 803 803 804 805 805 805 806 806 807 807 807 807 807 807 807 807 807 806 806 805 804 804 804 803 803 803 802 802 802 801 800 800 799 799 798
754 756 758 760 762 763 765 767 768 771 772 774 776 777 778 779 781 782 783 785 787 788 789 791 792 793 794 796 797 798 799 800 801 802 803 803 804 804 805 805 805 806 806 806 807 807 807 807 807 806 806 805 805 804 804 803 803 803 803 802 802 801 801 800 800 799 799 798 797
754 756 758 759 761 762 764 766 768 770 772 774 775 777 778 779 780 782 783 785 786 787 789 790 792 793 794 796 797 798 799 800 801 802 802 803 803 804 804 805 805 805 806 806 806 806 806 806 806 805 805 804 804 803 803 802 802 802 802 802 801 801 800 800 799 798 798 797 797
753 755 757 759 761 762 764 767 769 770 772 774 775 777 778 779 780 782 783 784 786 787 789 790 792 793 794 796 797 798 799 800 801 802 802 803 803 803 804 804 804 805 805 805 805 805 805 805 805 804 804 803 803 802 802 802 802 801 801 801 801 800 800 799 798 798 797 797 796
752 754 756 758 760 762 764 767 769 771 772 773 775 776 777 779 780 781 782 784 786 787 789 790 791 792 794 795 797 798 799 800 800 801 802 802 803 803 803 803 804 804 804 804 804 804 804 804 804 803 803 803 802 802 802 801 801 801 801 800 800 799 799 798 798 797 797 796 795
751 753 756 757 760 762 764 767 768 770 772 773 774 776 777 779 780 781 782 784 786 787 788 790 791 792 794 795 796 797 798 799 800 801 802 802 802 802 803 803 803 803 803 803 803 803 803 803 803 803 802 802 802 802 801 801 800 800 800 799 799 798 798 797 797 797 796 795 794
751 753 756 757 760 762 764 766 768 770 772 773 774 776 777 778 780 781 782 784 786 787 788 790 791 792 794 795 796 797 798 799 800 801 801 802 802 802 802 802 802 802 802 802 802 802 802 802 802 802 802 802 801 801 800 800 800 799 799 799 798 798 797 797 796 796 795 794 793
752 753 755 757 760 762 764 766 768 769 771 772 774 775 777 778 780 781 783 784 785 787 788 790 791 792 794 795 796 797 798 799 800 800 801 801 801 802 802 802 802 802 802 802 802 802 802 802 801 801 801 801 800 800 800 799 799 799 798 798 797 797 796 796 795 795 794 793 792
752 754 756 757 760 762 764 766 767 769 771 772 773 775 777 778 780 782 783 784 785 787 788 789 791 792 794 795 796 797 798 799 799 800 800 801 801 801 801 801 801 801 801 801 801 801 801 801 801 800 800 800 800 799 799 799 798 798 797 797 797 796 796 795 794 794 793 792 792
752 754 756 758 760 762 763 765 767 769 771 772 773 775 777 778 780 781 783 784 786 787 788 789 791 792 794 795 796 797 798 798 799 799 800 800 800 800 800 800 800 800 800 800 800 800 800 800 800 799 799 799 799 798 798 798 798 797 797 796 796 795 795 794 793 793 792 791 791
753 755 757 758 760 762 763 765 767 769 770 772 773 775 776 778 780 781 783 784 786 787 788 790 791 792 793 795 796 797 797 798 799 799 799 799 799 800 800 800 800 800 800 800 800 800 800 799 799 799 798 798 798 797 797 797 797 797 796 795 795 794 794 793 792 792 791 790 789
753 755 757 759 760 762 763 765 767 768 770 772 773 775 776 778 780 781 783 785 786 787 788 790 791 792 793 795 796 797 797 798 798 798 799 799 799 799 799 799 799 799 799 799 799 799 799 799 798 798 798 797 797 797 797 796 796 796 795 794 794 793 793 792 792 791 790 789 788
754 756 757 759 761 762 764 765 767 768 770 772 773 775 777 778 780 782 783 785 787 787 789 790 791 792 794 795 795 796 797 797 798 798 798 798 798 798 798 798 798 798 798 798 798 798 798 798 798 797 797 797 797 796 796 796 795 795 794 793 793 792 792 791 790 790 789 788 787
754 756 758 759 761 762 764 766 767 769 770 772 773 775 777 779 780 782 784 785 787 788 789 790 792 792 794 794 795 796 796 797 797 797 797 797 797 798 798 798 798 798 798 798 798 798 797 797 797 797 797 796 796 796 795 795 794 794 793 792 792 791 791 790 789 789 788 787 786
755 756 758 760 761 763 764 766 767 769 771 772 774 776 777 779 781 783 784 786 787 788 790 791 792 792 793 794 795 796 796 796 797 797 797 797 797 797 797 797 797 797 797 797 797 797 797 797 797 796 796 796 795 795 794 794 793 793 792 792 791 790 790 789 788 787 787 786 785
755 757 758 760 762 763 765 767 768 770 772 773 775 777 778 780 782 783 785 786 787 789 790 791 792 792 793 794 795 795 796 796 796 796 796 797 797 797 797 797 797 797 797 797 797 797 796 796 796 795 795 795 794 794 793 793 792 792 791 791 790 789 789 788 787 786 786 785 784
755 757 759 761 762 764 765 767 769 771 772 774 776 777 779 781 782 784 785 786 787 789 790 791 792 792 793 794 794 795 795 795 796 796 796 796 796 796 796 796 796 796 797 797 796 796 796 796 795 795 795 794 794 793 793 792 792 791 790 790 789 788 787 787 786 785 784 783 783
756 757 760 762 763 765 766 768 770 772 773 775 777 778 780 781 782 784 785 787 788 789 790 791 792 792 793 794 794 794 795 795 795 795 795 796 796 796 796 796 796 796 796 796 795 795 795 795 795 794 794 794 793 792 792 791 791 790 789 788 788 787 786 786 785 784 783 782 782
756 758 760 762 764 766 767 769 771 772 774 776 777 779 780 782 783 784 786 787 788 789 790 791 792 792 793 793 794 794 794 794 795 795 795 795 795 795 795 795 796 795 795 795 794 794 794 794 794 794 793 793 792 792 791 790 790 789 788 787 787 786 785 784 783 783 782 781 780
757 759 761 763 765 767 768 770 771 773 774 776 777 779 781 782 783 784 786 787 788 789 790 791 792 792 792 793 793 793 794 794 794 794 795 795 795 795 795 795 795 795 794 794 794 793 793 793 793 793 792 792 792 791 790 789 788 788 787 786 786 785 784 783 782 781 781 780 779
758 760 762 764 766 767 769 771 772 773 775 777 778 779 781 782 783 785 786 787 788 789 790 791 791 792 792 792 793 793 793 794 794 794 794 794 794 794 794 795 794 794 794 793 793 792 792 792 792 792 792 791 791 790 789 788 787 787 786 785 784 784 783 782 781 780 779 779 778
758 761 763 765 767 768 770 771 773 774 776 777 778 780 781 782 784 785 786 787 788 789 790 791 791 792 792 792 792 793 793 793 793 793 794 794 794 794 794 794 794 793 793 792 792 792 792 792 792 791 791 790 790 789 788 787 787 786 785 784 783 782 782 781 780 779 778 777 777
759 761 763 765 767 769 771 772 773 775 776 777 779 780 782 783 784 785 786 787 788 789 790 790 791 791 792 792 792 792 793 793 793 793 793 793 793 793 793 793 793 792 792 792 791 791 791 791 791 790 790 789 789 788 787 786 785 785 784 783 782 782 781 780 779 778 777 777 776
760 762 764 766 768 770 771 773 774 775 777 778 779 781 782 783 784 785 786 787 788 789 790 790 791 791 792 792 792 792 792 792 792 792 793 793 793 793 793 792 792 792 791 791 791 791 790 790 790 789 789 788 788 787 786 785 784 784 783 782 781 780 780 779 778 777 777 776 775
761 763 765 767 768 770 772 773 775 776 777 778 780 781 782 783 784 786 787 787 788 789 789 790 790 791 791 792 792 792 792 792 792 792 792 792 792 792 792 792 791 791 791 790 790 790 790 789 789 788 788 787 787 786 785 784 783 782 782 781 780 779 779 778 777 776 776 775 774
762 764 766 767 769 771 772 774 775 777 778 779 780 781 782 783 785 786 787 787 788 789 789 790 790 791 791 791 792 792 792 792 792 792 792 792 792 792 791 791 791 790 790 789 789 789 789 788 788 787 787 786 786 785 784 783 782 781 781 780 779 778 777 777 776 775 774 774 773
763 764 766 768 770 771 773 774 776 777 778 779 781 782 782 783 785 786 787 787 788 789 789 790 790 791 791 791 791 791 791 791 791 791 791 791 791 791 791 791 790 790 789 789 788 788 788 787 787 787 786 785 784 783 782 782 781 780 779 778 778 777 777 776 775 774 773 773 772
763 765 767 768 770 772 773 775 776 777 778 780 781 782 783 784 785 786 787 787 788 789 789 790 790 790 791 791 791 791 791 791 791 791 791 791 790 790 790 790 790 789 788 788 788 787 787 787 786 785 785 784 783 782 781 781 780 779 778 777 777 776 775 775 774 773 772 772 771
764 766 767 769 771 772 774 775 777 777 779 780 781 782 783 784 785 786 787 787 788 788 789 789 790 790 790 790 790 790 791 791 790 790 790 790 790 790 790 789 789 788 788 787 787 787 786 786 785 784 783 783 782 781 780 779 778 778 777 776 775 775 774 773 772 772 771 771 770
764 766 767 769 771 772 774 775 777 778 779 780 781 782 783 784 785 786 787 787 788 788 789 789 789 790 790 790 790 790 790 790 790 790 789 789 789 789 789 789 788 788 787 787 786 786 785 785 784 783 782 782 781 780 779 778 777 777 776 775 774 773 773 772 771 771 770 770 769
765 767 768 770 771 773 774 776 777 778 779 781 782 783 784 784 785 786 787 787 788 788 789 789 789 789 789 790 790 790 790 790 789 789 789 789 789 789 788 788 788 787 787 786 785 785 784 784 783 782 782 781 780 779 778 777 776 775 774 774 773 772 772 771 770 770 769 768 768
766 767 769 770 772 773 775 776 777 778 780 781 782 783 784 785 785 786 787 787 788 788 788 789 789 789 789 789 789 789 789 789 789 789 788 788 788 788 788 788 787 787 786 785 784 784 783 783 782 782 781 780 779 778 777 776 775 774 773 772 772 771 771 770 769 768 768 767 767
767 768 770 771 772 774 775 777 778 779 780 781 782 783 784 785 785 786 787 787 788 788 788 789 789 789 789 789 789 789 788 788 788 788 788 788 787 787 787 787 787 786 785 784 783 783 782 782 781 781 780 779 778 777 776 775 774 773 772 772 771 770 769 769 768 767 767 766 766
768 769 771 772 773 774 776 777 778 779 780 781 782 783 784 785 785 786 787 787 787 788 788 788 788 788 788 788 788 788 788 788 788 787 787 787 787 787 786 786 786 785 784 783 782 782 782 781 780 780 779 778 777 777 776 774 773 772 772 771 770 769 768 768 767 767 766 765 764
769 770 771 772 773 775 776 777 778 779 781 782 782 783 784 785 785 786 787 787 787 787 788 788 788 788 788 788 788 788 788 788 787 787 787 787 786 786 785 785 785 784 783 782 782 781 781 780 779 779 778 778 777 776 775 774 773 772 771 770 769 769 768 767 767 766 765 764 763